Location: Devore Heights
(34.2372°N, 117.4156°W)
Time: 19:44:22
(UTC+00:00)

S-56A Canister/Altair - Pass Details

Date: 22 September 2024
Orbit: 636 x 2487 km, 38.9° (Epoch: 14 October)

Event Time Altitude Azimuth Distance (km) Brightness Sun altitude
Rises 04:01:32 0° 289° (WNW) 3,320 12.1 -28.1°
Reaches altitude 10° 04:03:40 10° 291° (WNW) 2,536 11.1 -28.5°
Maximum altitude 04:09:42 80° 18° (NNE) 1,155 8.2 -29.6°
Enters shadow 04:10:32 71° 77° (ENE) 1,237 8.2 -29.8°
Drops below altitude 10° 04:18:57 10° 106° (ESE) 3,793 - -31.4°
Sets 04:22:48 0° 107° (ESE) 5,081 - -32.1°
